Simultaneous Nadir Overpasses (SNOs) Predictions

Prediction of SNOs between GOES-15 and TERRA Satellite Orbit:

Table of predicted SNOs for the next 14.0 days since TLE Epoch: 7/28/2017
Index Date Time (GOES-15) GOES-15 Lat,Lon TERRA Lat,Lon Distance(km) Time Diff (sec)
1 07/29/2017 07:10:09 -0.01,-134.78 0.92,-130.40 497.67 80
2 07/29/2017 19:34:05 0.04,-134.82 0.17,-135.56 83.70 80
3 07/31/2017 19:19:14 0.03,-134.73 -0.42,-132.60 242.72 80
4 08/01/2017 07:43:18 -0.07,-134.65 -0.70,-137.79 355.87 80
5 08/03/2017 07:31:07 -0.06,-134.56 -0.11,-134.83 30.25 80
6 08/05/2017 07:16:16 -0.05,-134.46 0.49,-131.87 294.72 80
7 08/05/2017 19:40:11 0.09,-134.49 0.60,-137.03 287.57 80
8 08/07/2017 19:25:21 0.08,-134.39 0.00,-134.07 36.73 80
9 08/09/2017 19:13:10 0.07,-134.28 -0.60,-131.11 360.52 80
10 08/10/2017 07:37:12 -0.11,-134.20 -0.57,-136.29 238.24 80




NCC Satellite Simultaneous Nadir Overpasses (SNOs) Prediction Service
